Tracking 30107 objects as of 18-Jan-2025
HD Live streaming from Space Station
objects crossing your sky now

STARLINK-4211

Track STARLINK-4211 now!
10-day predictions
STARLINK-4211 is classified as:


NORAD ID: 52873
Int'l Code: 2022-062AV
Perigee: 545.8 km
Apogee: 547.9 km
Inclination: 53.2 °
Period: 95.4 minutes
Semi major axis: 6917 km
RCS: Unknown
Launch date: June 17, 2022
Source: United States (US)
Launch site: AIR FORCE EASTERN TEST RANGE (AFETR)
Your satellite tracking list
Your tracking list is empty




NASA's NSSDC Master Catalog

Two Line Element Set (TLE):
1 52873U 22062AV  25018.16541949  .00002113  00000-0  15078-3 0  9993
2 52873  53.2184  79.4803 0001564  91.0179 269.0992 15.08846477143829
Source of the keplerian elements: AFSPC